TimeEDT,TemperatureF,Dew PointF,Humidity,Sea Level PressureIn,VisibilityMPH,Wind Direction,Wind SpeedMPH,Gust SpeedMPH,PrecipitationIn,Events,Conditions,WindDirDegrees,DateUTC
12:56 AM,66.0,53.1,63,29.95,10.0,South,9.2,-,N/A,,Clear,180,2012-10-26 04:56:00
1:56 AM,66.0,53.1,63,29.96,10.0,South,9.2,-,N/A,,Mostly Cloudy,190,2012-10-26 05:56:00
2:56 AM,64.9,53.1,65,29.96,10.0,SSW,11.5,-,N/A,,Partly Cloudy,200,2012-10-26 06:56:00
3:56 AM,64.0,54.0,70,29.96,10.0,SW,9.2,-,N/A,,Scattered Clouds,220,2012-10-26 07:56:00
4:33 AM,57.2,53.6,88,30.01,10.0,NW,16.1,23.0,N/A,,Partly Cloudy,320,2012-10-26 08:33:00
4:56 AM,54.0,51.1,90,30.01,10.0,NW,15.0,23.0,N/A,,Partly Cloudy,310,2012-10-26 08:56:00
5:09 AM,53.6,51.8,94,30.03,10.0,NW,15.0,-,N/A,,Scattered Clouds,320,2012-10-26 09:09:00
5:18 AM,53.6,50.0,88,30.04,10.0,NNW,12.7,-,N/A,,Mostly Cloudy,330,2012-10-26 09:18:00
5:56 AM,53.1,50.0,89,30.06,10.0,NW,13.8,-,N/A,,Overcast,310,2012-10-26 09:56:00
6:56 AM,53.1,48.9,86,30.08,10.0,NNW,13.8,-,N/A,,Overcast,340,2012-10-26 10:56:00
7:34 AM,51.8,46.4,82,30.11,10.0,NNW,18.4,24.2,N/A,,Overcast,340,2012-10-26 11:34:00
7:56 AM,51.1,46.0,83,30.12,10.0,NNW,11.5,-,N/A,,Overcast,330,2012-10-26 11:56:00
8:08 AM,51.8,46.4,82,30.13,10.0,NNW,13.8,24.2,N/A,,Overcast,330,2012-10-26 12:08:00
8:33 AM,48.2,44.6,87,30.13,10.0,NNW,17.3,25.3,0.00,,Overcast,340,2012-10-26 12:33:00
8:48 AM,48.2,44.6,87,30.13,10.0,North,15.0,-,0.00,,Overcast,350,2012-10-26 12:48:00
8:56 AM,48.2,44.6,87,30.13,10.0,North,16.1,21.9,N/A,,Overcast,360,2012-10-26 12:56:00
9:10 AM,48.2,44.6,87,30.14,10.0,North,13.8,-,N/A,,Overcast,360,2012-10-26 13:10:00
9:41 AM,48.2,44.6,87,30.16,10.0,North,13.8,-,N/A,,Overcast,360,2012-10-26 13:41:00
9:56 AM,48.9,44.1,83,30.16,10.0,North,11.5,-,N/A,,Overcast,350,2012-10-26 13:56:00
10:56 AM,46.9,45.0,93,30.18,7.0,North,11.5,-,0.01,Rain,Light Rain,360,2012-10-26 14:56:00
11:33 AM,46.4,44.6,93,30.18,3.0,North,10.4,-,0.03,Rain,Light Rain,360,2012-10-26 15:33:00
11:41 AM,46.4,44.6,93,30.18,2.5,North,13.8,19.6,0.04,Rain,Light Rain,360,2012-10-26 15:41:00
11:56 AM,46.9,45.0,93,30.19,4.0,North,11.5,-,0.05,Rain,Light Rain,360,2012-10-26 15:56:00
12:29 PM,46.4,46.4,100,30.18,2.0,North,11.5,-,0.02,Rain,Light Rain,350,2012-10-26 16:29:00
12:47 PM,46.4,44.6,93,30.18,1.8,North,13.8,-,0.04,Rain,Rain,350,2012-10-26 16:47:00
12:56 PM,46.9,45.0,93,30.18,2.5,NNW,12.7,-,0.05,Rain,Light Rain,340,2012-10-26 16:56:00
1:11 PM,46.4,46.4,100,30.18,1.2,NNW,11.5,-,0.03,Rain,Heavy Rain,340,2012-10-26 17:11:00
1:48 PM,46.4,44.6,93,30.18,2.0,NNW,12.7,-,0.12,Rain,Rain,340,2012-10-26 17:48:00
1:56 PM,46.0,45.0,96,30.19,2.0,NNW,11.5,-,0.14,Rain,Rain,340,2012-10-26 17:56:00
2:29 PM,46.4,44.6,93,30.18,1.8,NNW,12.7,-,0.06,Rain,Rain,330,2012-10-26 18:29:00
2:44 PM,46.4,44.6,93,30.16,2.0,North,11.5,-,0.10,Rain,Rain,360,2012-10-26 18:44:00
2:56 PM,46.0,44.1,93,30.16,2.5,North,12.7,-,0.14,Rain,Rain,360,2012-10-26 18:56:00
3:31 PM,46.4,44.6,93,30.17,4.0,North,12.7,-,0.08,Rain,Light Rain,360,2012-10-26 19:31:00
3:56 PM,46.0,44.1,93,30.16,6.0,North,11.5,-,0.08,Rain,Light Rain,360,2012-10-26 19:56:00
4:03 PM,46.4,44.6,93,30.15,2.0,North,12.7,-,0.00,Rain,Light Rain,10,2012-10-26 20:03:00
4:46 PM,46.4,44.6,93,30.16,1.8,North,12.7,-,0.06,Rain,Heavy Rain,360,2012-10-26 20:46:00
4:56 PM,46.0,44.1,93,30.17,1.8,North,12.7,-,0.09,Rain,Rain,360,2012-10-26 20:56:00
5:09 PM,46.4,44.6,93,30.16,2.0,North,13.8,-,0.04,Rain,Rain,360,2012-10-26 21:09:00
5:41 PM,46.4,44.6,93,30.15,5.0,North,13.8,-,0.07,Rain,Light Rain,360,2012-10-26 21:41:00
5:56 PM,46.0,44.1,93,30.16,5.0,North,13.8,-,0.08,Rain,Light Rain,360,2012-10-26 21:56:00
6:23 PM,46.4,44.6,93,30.17,2.0,North,10.4,-,0.04,Rain,Rain,350,2012-10-26 22:23:00
6:56 PM,45.0,44.1,97,30.17,5.0,North,15.0,20.7,0.13,Rain,Rain,10,2012-10-26 22:56:00
7:15 PM,44.6,42.8,93,30.17,5.0,North,12.7,-,0.03,Rain,Rain,360,2012-10-26 23:15:00
7:56 PM,45.0,43.0,93,30.16,6.0,NNE,16.1,-,0.06,Rain,Light Rain,20,2012-10-26 23:56:00
8:03 PM,44.6,42.8,93,30.15,6.0,North,13.8,-,0.01,Rain,Light Rain,10,2012-10-27 00:03:00
8:22 PM,44.6,42.8,93,30.15,8.0,NNE,15.0,-,0.02,Rain,Light Rain,20,2012-10-27 00:22:00
8:48 PM,44.6,42.8,93,30.16,5.0,North,13.8,-,0.03,Rain,Light Rain,10,2012-10-27 00:48:00
8:56 PM,44.1,43.0,96,30.17,5.0,North,10.4,-,0.04,Rain,Light Rain,360,2012-10-27 00:56:00
9:56 PM,44.1,42.1,93,30.16,4.0,North,16.1,-,0.06,Rain,Rain,10,2012-10-27 01:56:00
10:56 PM,44.1,42.1,93,30.16,6.0,North,13.8,21.9,0.05,Rain,Light Rain,360,2012-10-27 02:56:00
11:56 PM,43.0,42.1,97,30.16,3.0,North,15.0,-,0.04,Rain,Light Rain,360,2012-10-27 03:56:00